Kezdőlap
METAR-TAF:

METAR-TAF

Repülőterek :

Albert Lea, Minnesota, Amerikai Egyesült Államok

földrajzi szélesség: 43-41N, földrajzi hosszúság: 093-22W, magasság: 383 m

Jelenlegi meteorológiai megfigyelések

A jelentés 19 perccel ezelõtt készült, 17:35 UTC
Északkeleti szél 10 kt széllökések: 14 kt
Hőmérséklet 13°C
Páratartalom 26%
Légköri nyomás 1028 hPa
Látótávolság: 16.1 km
Derült ég

METAR: KAEL 111735Z AUTO 05010G14KT 10SM CLR 13/M06 A3037 RMK AO2

Idő: 12:54 (17:54 UTC)


TAF: hiányzik

Meteorológiai megfigyelések és előrejelzések több, mint 4000 repülőtéren (METAR és TAF jelentéseket).

A térképen piros és sárga pontok jelzik az elérhető meteorológiai állomásokat.

Mozgassa az egeret a pont fölött, hogy megjelenjen az állomás neve.

Azután kattintson az időjárási megfigyelések és előrejelzések megtekintéséhez.

A térkép megváltoztatása: kattintson a fekete keresztel jelölt zöld gombra ráközelítéshez, a vonallal jelölt zöld gombra távolításhoz, vagy a zöld nyilakra a szomszédos térképek eléréséhez.


METAR-TAF: